{"data":{"norad_id":87029,"epoch":"2026-05-19T08:59:35.693952Z","epoch_age_seconds":561828,"freshness":"STALE","line1":"1 87029U          26139.37471868  .00000949  00000+0  59852-3 0  9994","line2":"2 87029  98.7363 173.9542 0082723 166.7972 193.5388 14.04845848615134","mean_motion":14.04845848,"eccentricity":0.0082723,"inclination_deg":98.7363,"raan_deg":173.9542,"arg_perigee_deg":166.7972,"mean_anomaly_deg":193.5388,"bstar":0.00059852,"rev_number":61513,"period_min":102.50234942503,"perigee_km":817.04587963952,"apogee_km":937.0802627373,"semimajor_km":7255.2000711884,"source":"CELESTRAK","updated_at":"2026-05-25T13:38:11.435043Z"}}